Погода в Пладжа-де-Муро

Испания     39°48′28″N   3°06′49″E
темп.,
°C
ветер,
м/с
пор.,
м/с
влажн.,
%
обл.,
%
осадки,
мм/ч
давл.,
гПа
погр.,
м
8 марта, пн
пн801:00+11св2494100 0.1 1014186
04:00+10ссв3496100 0.1 1012143
07:00+11св4795100 0.1 1011304
10:00+12ссв588499 0.2 1012720
13:00+11ссв6993100 1.9 1012562
16:00+10ссв5995100 12.3 1012546
19:00+10ссв5894100 15.2 1012529
22:00+10с4893100 1.1 1014406
9 марта, вт
вт901:00+10с479099 1.5 1014305
04:00+10с6108798 0.6 1014568
07:00+9с598796 1.1 1015378
10:00+12ссв697580 0.1 10171061
13:00+13ссв676063 0.1 10181171
16:00+12св55640 0.0 1017925
19:00+8всв22801 0.0 101722
22:00+7зюз12850 0.0 102023
10 марта, ср
ср1001:00+7з22830 0.0 102022
04:00+6з22870 0.0 102024
07:00+6з22900 0.1 102124
10:00+12ссз11692 0.0 1023575
13:00+16сз23485 0.1 10241546
16:00+15ююз12498 0.0 10231137
19:00+9ююв12784 0.0 102363
22:00+7зюз22790 0.0 102525
11 марта, чт
чт1101:00+6зюз33640 0.0 102528
04:00+6зюз23680 0.0 102423
07:00+6зюз23830 0.0 102423
10:00+14юз46660 0.0 1026419
13:00+17юз67610 0.0 1026859
16:00+16юз67651 0.0 1024789
19:00+11юз610918 0.0 1023278
22:00+11юз6119497 0.0 1024317
12 марта, пт
пт1201:00+11юз7129179 0.0 1023273
04:00+11юз7108651 0.0 1021222
07:00+11зюз458476 0.0 1020104
10:00+17юв026387 0.0 1021429
13:00+17св326765 0.0 1020783
16:00+14св5681100 0.1 1019438
19:00+11ссв479081 0.1 1019295
22:00+10ссв598199 0.0 1022548